Ionia, MI

7:44 PM EST on November 11, 2019 (GMT -0500)
Ionia

Weather History for KY70 - September, 2019

Change the Weather History Date:

Saturday, September 28, 2019

  Actual Average (KGRR) Record (KGRR)
Temperature  
Mean Temperature 60 °F -  
Max Temperature 66 °F 67 °F 86 °F (1946)
Min Temperature 55 °F 45 °F 27 °F (1991)
Degree Days  
Heating Degree Days 4    
Growing Degree Days 10 (Base 50)    
Moisture  
Dew Point 58 °F    
Average Humidity 87    
Maximum Humidity 100    
Minimum Humidity 64    
Precipitation  
Precipitation 0.31 in - - ()
Sea Level Pressure  
Sea Level Pressure 30.05 in    
Wind  
Wind Speed 6 mph ()    
Max Wind Speed 12 mph    
Max Gust Speed 17 mph    
Visibility 8.4 miles    
Events Rain    
Averages and records for this station are not official NWS values.
T = Trace of Precipitation, MM = Missing Value Source: Averaged Metar Reports

Daily Weather History Graph

Daily Weather History Graph

Search for Another Location

Airport or City:

Astronomy

Sep. 28, 2019 Rise Set
Actual Time 7:33 AM EDT 7:27 PM EDT
Civil Twilight 7:05 AM EDT 7:55 PM EDT
Nautical Twilight 6:32 AM EDT 8:28 PM EDT
Astronomical Twilight 5:59 AM EDT 9:01 PM EDT
Moon 7:07 AM EDT (9/28) 7:53 PM EDT (9/28)
Length of Visible Light 12h 49m
Length of Day
11h 53m
Waning Crescent, 0% of the Moon is Illuminated
Sep 28
Waning Crescent
Sep 28
New
Oct 5
First Quarter
Oct 13
Full
Oct 21
Last Quarter

Hourly Weather History & Observations

Time (EDT) Temp. Dew Point Humidity Pressure Visibility Wind Dir Wind Speed Gust Speed Precip Events Conditions
12:11 AM 66.2 °F 64.4 °F 94% 29.81 in 7.0 mi SSW 6.9 mph - 0.03 in Rain Heavy Rain
12:31 AM 66.2 °F 64.4 °F 94% 29.80 in 10.0 mi South 11.5 mph - 0.07 in Rain Rain
12:51 AM 66.2 °F 64.4 °F 94% 29.80 in 10.0 mi SSW 9.2 mph - 0.09 in Rain Light Rain
1:32 AM 66.2 °F 64.4 °F 94% 29.81 in 10.0 mi SSW 6.9 mph - 0.03 in Rain Rain
1:52 AM 66.2 °F 64.4 °F 94% 29.82 in 10.0 mi SW 4.6 mph - 0.04 in Rain Light Rain
2:12 AM 66.2 °F 64.4 °F 94% 29.83 in 7.0 mi SSW 4.6 mph - N/A Rain Rain
2:32 AM 66.2 °F 64.4 °F 94% 29.84 in 10.0 mi SSW 5.8 mph - N/A   Overcast
2:51 AM 66.2 °F 64.4 °F 94% 29.84 in 10.0 mi SSW 6.9 mph - N/A   Overcast
3:11 AM 66.2 °F 64.4 °F 94% 29.84 in 4.0 mi South 5.8 mph - 0.07 in Rain Heavy Rain
3:31 AM 66.2 °F 64.4 °F 94% 29.84 in 10.0 mi SW 4.6 mph - 0.08 in Rain Rain
3:51 AM 66.2 °F 64.4 °F 94% 29.84 in 10.0 mi SSW 6.9 mph - 0.09 in Rain Rain
4:11 AM 66.2 °F 64.4 °F 94% 29.84 in 10.0 mi South 5.8 mph - N/A   Heavy Drizzle
4:31 AM 66.2 °F 64.4 °F 94% 29.86 in 10.0 mi SSW 8.1 mph - 0.01 in Rain Light Rain
4:52 AM 66.2 °F 64.4 °F 94% 29.87 in 10.0 mi SSW 5.8 mph - 0.01 in   Overcast
5:12 AM 66.2 °F 64.4 °F 94% 29.87 in 10.0 mi SW 4.6 mph - N/A   Light Drizzle
5:31 AM 66.2 °F 64.4 °F 94% 29.87 in 5.0 mi SW 3.5 mph - N/A   Heavy Drizzle
5:52 AM 66.2 °F 64.4 °F 94% 29.88 in 3.0 mi Calm Calm - 0.02 in Rain Rain
6:11 AM 66.2 °F 64.4 °F 94% 29.88 in 4.0 mi Calm Calm - 0.01 in   Heavy Drizzle
6:31 AM 64.4 °F 64.4 °F 100% 29.89 in 3.0 mi North 11.5 mph 16.1 mph 0.04 in Rain Heavy Rain
6:52 AM 62.6 °F 60.8 °F 94% 29.91 in 5.0 mi NNE 11.5 mph - 0.04 in Rain Rain
7:11 AM 60.8 °F 60.8 °F 100% 29.93 in 5.0 mi North 9.2 mph - N/A   Light Drizzle
7:31 AM 60.8 °F 59.0 °F 94% 29.93 in 5.0 mi North 9.2 mph - N/A   Light Drizzle
7:51 AM 60.8 °F 59.0 °F 94% 29.95 in 10.0 mi NNE 10.4 mph 16.1 mph N/A   Overcast
8:11 AM 60.8 °F 59.0 °F 94% 29.99 in 10.0 mi North 5.8 mph - N/A   Overcast
8:31 AM 60.8 °F 59.0 °F 94% 30.00 in 5.0 mi Calm Calm - N/A   Overcast
8:51 AM 60.8 °F 59.0 °F 94% 30.02 in 1.8 mi North 4.6 mph - N/A Rain Rain
9:11 AM 60.8 °F 59.0 °F 94% 30.02 in 1.8 mi North 6.9 mph - 0.01 in   Heavy Drizzle
9:32 AM 60.8 °F 59.0 °F 94% 30.02 in 3.0 mi North 9.2 mph - 0.01 in   Drizzle
9:53 AM 60.8 °F 59.0 °F 94% 30.03 in 3.0 mi North 6.9 mph - 0.01 in   Drizzle
10:11 AM 60.8 °F 59.0 °F 94% 30.03 in 2.5 mi NNE 6.9 mph - 0.01 in   Drizzle
10:31 AM 60.8 °F 59.0 °F 94% 30.04 in 5.0 mi North 9.2 mph - 0.01 in   Light Drizzle
10:52 AM 60.8 °F 59.0 °F 94% 30.06 in 7.0 mi North 8.1 mph - 0.01 in   Overcast
11:12 AM 60.8 °F 59.0 °F 94% 30.06 in 4.0 mi North 4.6 mph - N/A Rain Light Rain
11:31 AM 60.8 °F 59.0 °F 94% 30.05 in 5.0 mi NE 8.1 mph - N/A   Overcast
11:51 AM 62.6 °F 59.0 °F 88% 30.07 in 10.0 mi NNE 8.1 mph - N/A   Overcast
12:11 PM 62.6 °F 59.0 °F 88% 30.07 in 10.0 mi NNE 10.4 mph 17.3 mph N/A   Overcast
12:31 PM 62.6 °F 59.0 °F 88% 30.07 in 10.0 mi NNE 11.5 mph 17.3 mph N/A   Overcast
12:51 PM 60.8 °F 57.2 °F 88% 30.09 in 10.0 mi North 10.4 mph - N/A   Overcast
1:11 PM 60.8 °F 57.2 °F 88% 30.10 in 10.0 mi North 9.2 mph - N/A   Overcast
1:31 PM 62.6 °F 57.2 °F 82% 30.11 in 10.0 mi North 11.5 mph - N/A   Overcast
1:51 PM 62.6 °F 57.2 °F 82% 30.12 in 10.0 mi North 10.4 mph - N/A   Overcast
2:11 PM 62.6 °F 57.2 °F 82% 30.12 in 10.0 mi North 8.1 mph - N/A   Overcast
2:31 PM 62.6 °F 57.2 °F 82% 30.13 in 10.0 mi NNE 8.1 mph - N/A   Overcast
2:51 PM 62.6 °F 57.2 °F 82% 30.14 in 10.0 mi NNE 6.9 mph - N/A   Overcast
3:12 PM 62.6 °F 57.2 °F 82% 30.15 in 10.0 mi NNE 6.9 mph - N/A   Overcast
3:32 PM 62.6 °F 57.2 °F 82% 30.16 in 10.0 mi NNE 3.5 mph - N/A   Overcast
3:51 PM 64.4 °F 55.4 °F 73% 30.16 in 10.0 mi NE 3.5 mph - N/A   Overcast
4:11 PM 64.4 °F 55.4 °F 73% 30.16 in 10.0 mi Calm Calm - N/A   Overcast
4:31 PM 64.4 °F 53.6 °F 68% 30.17 in 10.0 mi Calm Calm - N/A   Mostly Cloudy
4:53 PM 64.4 °F 53.6 °F 68% 30.18 in 10.0 mi Calm Calm - N/A   Overcast
5:12 PM 64.4 °F 53.6 °F 68% 30.18 in 10.0 mi Calm Calm - N/A   Overcast
5:31 PM 64.4 °F 55.4 °F 73% 30.19 in 10.0 mi Calm Calm - N/A   Mostly Cloudy
5:51 PM 66.2 °F 53.6 °F 64% 30.19 in 10.0 mi NE 3.5 mph - N/A   Overcast
6:11 PM 64.4 °F 53.6 °F 68% 30.20 in 10.0 mi ENE 4.6 mph - N/A   Mostly Cloudy
6:31 PM 64.4 °F 55.4 °F 73% 30.21 in 10.0 mi Calm Calm - N/A   Scattered Clouds
6:51 PM 62.6 °F 55.4 °F 77% 30.21 in 10.0 mi East 3.5 mph - N/A   Scattered Clouds
7:11 PM 62.6 °F 55.4 °F 77% 30.21 in 10.0 mi ENE 4.6 mph - N/A   Clear
7:31 PM 60.8 °F 55.4 °F 82% 30.20 in 10.0 mi ENE 6.9 mph - N/A   Clear
7:52 PM 59.0 °F 55.4 °F 88% 30.21 in 10.0 mi NE 6.9 mph - N/A   Clear
8:11 PM 59.0 °F 53.6 °F 82% 30.21 in 10.0 mi NE 6.9 mph - N/A   Clear
8:31 PM 59.0 °F 53.6 °F 82% 30.22 in 10.0 mi NE 6.9 mph - N/A   Clear
8:52 PM 59.0 °F 53.6 °F 82% 30.21 in 10.0 mi NE 8.1 mph - N/A   Clear
9:13 PM 57.2 °F 53.6 °F 88% 30.22 in 10.0 mi NE 5.8 mph - N/A   Clear
9:31 PM 57.2 °F 53.6 °F 88% 30.22 in 10.0 mi NE 9.2 mph - N/A   Scattered Clouds
9:51 PM 57.2 °F 51.8 °F 82% 30.23 in 10.0 mi NE 8.1 mph - N/A   Scattered Clouds
10:11 PM 55.4 °F 51.8 °F 88% 30.24 in 10.0 mi NE 6.9 mph - N/A   Clear
10:31 PM 55.4 °F 51.8 °F 88% 30.25 in 10.0 mi NE 4.6 mph - N/A   Clear
10:51 PM 55.4 °F 51.8 °F 88% 30.26 in 10.0 mi NE 5.8 mph - N/A   Clear
11:11 PM 55.4 °F 51.8 °F 88% 30.27 in 10.0 mi ENE 4.6 mph - N/A   Clear
11:31 PM 55.4 °F 51.8 °F 88% 30.27 in 10.0 mi ENE 5.8 mph - N/A   Clear
11:52 PM 55.4 °F 51.8 °F 88% 30.29 in 10.0 mi East 3.5 mph - N/A   Clear